Location: USNO
(38.9242°N, 77.0663°W)
Time: 08:00:53
(UTC-05:00)

Daily predictions for brighter satellites

Satellite Brightness Start Highest point End
(mag) Time Altitude Azimuth Time Altitude Azimuth Time Altitude Azimuth
NOSS 3-2 (C) 4.0 18:16:31 10° SW 18:22:22 64° NW 18:28:51 10° NNE
Cosmos 2219 Rocket 4.2 18:21:53 10° NW 18:26:56 34° WSW 18:31:57 10° SSW
SL-8 R/B 3.9 18:22:12 10° WSW 18:26:58 71° NNW 18:31:44 10° NE
ALOS 2.4 18:24:06 10° SSE 18:28:45 84° WSW 18:33:27 10° NNW
MTI 3.7 18:26:04 10° NNE 18:29:16 85° ESE 18:32:27 10° SSW
Cosmos 44 3.5 18:28:48 10° NNW 18:33:49 61° ENE 18:39:02 10° SE
MONITOR-E 4.4 18:32:12 10° S 18:35:12 70° W 18:38:13 10° NNW
FENGYUN 3A 3.9 18:32:28 10° S 18:37:51 76° WSW 18:43:18 10° NNW
Cosmos 2227 Rocket 3.3 18:36:26 10° SW 18:41:51 46° WNW 18:47:16 10° N
CENTAUR R/B 2.4 18:38:03 10° SSW 18:43:56 79° ESE 18:50:42 10° NE
Cosmos 2237 Rocket 3.2 18:38:49 10° NNW 18:44:14 50° WSW 18:49:38 10° S
Cosmos 1378 Rocket 3.7 18:40:49 10° N 18:45:08 50° E 18:49:26 10° SSE
SL-16 R/B 2.1 18:43:24 10° NNW 18:49:05 70° ENE 18:54:42 10° SSE
Cosmos 1633 2.4 18:48:22 10° S 18:51:55 88° E 18:55:30 10° N
Cosmos 1782 Rocket 4.0 18:48:30 10° SSE 18:52:38 39° E 18:56:46 10° NNE
SJ-6B 3.4 18:50:14 10° SE 18:53:36 31° ENE 18:57:02 10° N
Lacrosse 5 3.9 18:50:55 10° WNW 18:55:14 29° WSW 18:59:31 10° S
Cosmos 2297 Rocket 3.5 18:50:19 10° SW 18:55:38 41° WNW 19:00:59 10° N
H-2A R/B 2.7 18:52:20 10° SSE 18:56:15 87° ENE 19:00:10 10° N
Sich 1 Rocket 3.6 18:53:53 10° S 18:58:20 63° E 19:02:45 10° NNE
ERS-2 2.0 18:58:30 10° SSE 19:02:09 70° ENE 19:05:50 10° N
Cosmos 1464 Rocket 3.9 18:56:08 10° N 19:02:18 81° E 19:08:26 10° S
Cosmos 1603 4.4 19:02:29 10° N 19:07:34 33° ENE 19:10:05 23° ESE
Meteor 1-20 Rocket 4.4 19:02:02 10° SSW 19:07:44 80° W 19:13:34 10° N
BREEZE-M R/B 3.9 19:06:06 10° NW 19:08:41 47° NE 19:12:05 22° E
Okean 1 3.2 19:05:25 10° N 19:09:24 66° E 19:13:20 10° SSE
Iridium 4 Rocket 3.1 19:05:07 10° N 19:09:57 84° E 19:14:22 10° S
Cosmos 1452 Rocket 4.1 19:07:30 10° NNW 19:12:40 58° WSW 19:17:47 10° S
Okean 2 Rocket 3.4 19:08:53 10° SSE 19:12:58 39° E 19:17:04 10° NNE
BREEZE-M DEB (TANK) 2.7 19:12:16 10° NW 19:14:27 31° NNE 19:14:37 30° NE
Cosmos 1812 4.4 19:11:01 10° NNW 19:14:36 36° W 19:18:09 10° SSW
CZ-2D R/B 3.4 19:12:22 12° SSE 19:15:50 50° ENE 19:19:37 10° N
Cosmos 1048 Rocket 4.1 19:10:50 10° SSW 19:16:10 79° WNW 19:21:29 10° NNE
Cosmos 2263 Rocket 3.3 19:20:04 10° SSE 19:23:04 23° SE 19:23:04 23° SE
Cosmos 1602 3.6 19:22:51 10° S 19:26:45 81° E 19:30:39 10° N
OAO 2 Rocket 3.6 19:23:38 10° WSW 19:28:26 53° S 19:29:58 38° ESE
Cosmos 921 Rocket 3.2 19:28:27 10° NNW 19:32:59 77° WSW 19:37:25 10° S
Cosmos 2034 Rocket 4.2 19:32:03 10° N 19:38:25 73° W 19:44:44 10° S
Cosmos 2346 Rocket 4.3 19:33:21 10° S 19:39:31 71° E 19:45:39 10° NNE
Tiangong 2 3.3 19:39:26 10° W 19:41:46 19° SW 19:42:18 18° SSW
Meteor 2-4 Rocket 3.7 19:37:52 10° N 19:43:35 58° ENE 19:45:18 41° SE
Meteor 1-19 Rocket 4.0 19:38:37 10° N 19:44:10 85° E 19:49:44 10° S
Cosmos 1437 Rocket 3.9 19:40:43 10° SSW 19:44:36 45° WNW 19:48:34 10° N
Meteor 1-5 Rocket 4.4 19:39:39 10° SSE 19:45:14 48° E 19:50:57 10° NNE
Cosmos 2227 4.2 19:40:01 10° SSW 19:45:46 81° WNW 19:51:30 10° NNE
Meteor 1-11 Rocket 3.5 19:42:19 10° S 19:47:51 74° E 19:53:31 10° NNE
ARGOS Delta rocket 4.0 19:43:33 10° N 19:48:21 70° WNW 19:52:53 10° SSW
Resurs 1-3 4.0 19:51:46 49° NNE 19:51:46 49° NNE 19:55:08 10° N
Cosmos 1634 Rocket 3.9 19:44:48 10° N 19:50:52 56° E 19:52:05 48° ESE
SeaSat 1 2.3 19:50:15 43° SSE 19:51:53 89° WSW 19:56:51 10° NNW
Gbstr 26 Del rocket 3.1 19:51:59 10° WSW 19:55:12 60° W 19:55:12 60° W
USA 215 3.4 19:52:59 23° NE 19:57:17 73° NW 20:03:46 10° WSW
Cosmos 2142 Rocket 4.5 19:54:03 10° N 20:00:18 58° E 20:00:21 58° E
Cosmos 1975 Rocket 4.1 19:56:24 10° NNW 20:00:38 45° W 20:04:52 10° SSW
Envisat 3.4 19:56:10 10° S 20:01:10 61° W 20:06:12 10° NNW
Cosmos 1939 Rocket 4.5 20:04:13 27° N 20:04:13 27° N 20:06:11 10° N
COSMOS 2455 2.7 19:58:22 10° SSW 20:04:22 79° ESE 20:05:36 58° NE
Resurs 01 Rocket 2.2 20:06:03 50° NNW 20:06:03 50° NNW 20:09:23 10° NNW
CZ-4C R/B 3.2 20:03:48 10° NNW 20:10:40 45° NE 20:10:42 45° NE
BREEZE-M DEB (TANK) 3.8 20:10:36 10° WSW 20:13:54 71° NNW 20:15:23 49° NNE
Cosmos 1943 3.6 20:08:44 10° NNW 20:13:10 51° NNE 20:13:10 51° NNE
Cosmos 494 Rocket 4.4 20:11:34 10° SSW 20:16:43 59° WNW 20:19:03 31° N
Cosmos 1110 Rocket 4.3 20:13:39 10° NNW 20:18:53 65° WSW 20:19:15 63° SW
USA 267 3.7 20:30:04 46° NNE 20:30:04 46° NNE 20:35:41 10° NW
ATLAS CENTAUR R/B 4.0 20:25:25 10° NNW 20:26:07 14° NNW 20:26:07 14° NNW
Cosmos 2263 Rocket 4.3 21:03:11 10° SW 21:04:56 19° WSW 21:04:56 19° WSW
CZ-4C R/B 4.5 21:52:23 10° NW 21:55:55 28° WNW 21:55:55 28° WNW
